Regional Weather Roundup
Issued by NWS

Home | Current Version | Previous Version | Text Only | Print | Product List | Glossary On
Versions: 1 2 3 4 5 6 7 8 9 10 11 12 13 14 15 16 17 18 19 20 21 22 23 24 25 26 27 28 29 30 31 32 33 34 35 36 37 38 39 40 41 42 43 44 45 46 47 48 49 50
000
ASCA42 TJSJ 310911
RWRPR
PUERTO RICO/U.S. VIRGIN ISLANDS HOURLY WEATHER ROUNDUP
NATIONAL WEATHER SERVICE SAN JUAN PR
500 AM AST SAT JAN 31 2015

PRZ001-004-311000-
PUERTO RICO

CITY           SKY/WX    TMP DP  RH WIND       PRES   REMARKS
SAN JUAN LMM   PTCLDY    73  72  94 CALM      29.96S
PONCE          PTCLDY    66  66 100 CALM      29.93S
CEIBA          PTCLDY    73  70  88 E3        29.98S
$$

PRZ006-007-311000-
U.S. VIRGIN ISLANDS

CITY           SKY/WX    TMP DP  RH WIND       PRES   REMARKS
CHRISTIANSTED  CLEAR     70  70 100 N3        29.96S
$$

HOURLY WEATHER ROUNDUP FOR THE NEWS MEDIA

CITY           SKY/WX    TMP DP  RH WIND       PRES   REMARKS
MIAMI          MOCLDY    63  52  67 N8        30.15S
ORLANDO        CLEAR     50  36  58 N6        30.24R
NEW YORK       PTCLDY    17   1  49 NW29G41   30.06R WCI  -2
NEWARK         PTCLDY    15   1  53 NW17G31   30.09S WCI  -1
CHICAGO        CLOUDY    24  17  74 SW6       30.28F WCI  17
HARTFORD       LGT SNOW  15   7  70 NW16G28   29.74R WCI  -1
BOSTON         LGT SNOW  14   5  67 NW28G37   29.74R VSB 1   WCI  -6
DALLAS         CLOUDY    49  31  49 E10       30.24F
PHILADELPHIA   CLEAR     16  -3  43 NW22G30   30.21R WCI  -2



USA.gov is the U.S. government's official web portal to all federal, state and local government web resources and services.